User: anonymous   Login
Location: Caltech
(34.1382°N, 118.1253°W)
Time: 06:27:44
(UTC-07:00)
Language:

SEDSat Delta rocket - Orbit

View from above orbital plane
View from above orbital plane
View from above satellite
View from above satellite

Ground track
Ground track

The orbit data is extracted from the following two-line orbital elements,

1 25510U 98061C   15208.84059380  .00000563  00000-0  90247-4 0  9990
2 25510 031.4332 138.4887 0329780 080.9509 315.4936 14.36690157877948
Epoch (UTC): 27 July 2015 20:10:27
Eccentricity: 0.0329780
inclination: 31.4332°
perigee height: 534 km
apogee height: 1005 km
right ascension of ascending node: 138.4887°
argument of perigee: 80.9509°
revolutions per day: 14.36690157
mean anomaly at epoch: 315.4936°
orbit number at epoch: 87794

The dashed part of the orbit path shows where the satellite is in the earth's shadow,  

DLR